Regional Weather Roundup
Issued by NWS

Home | Current Version | Previous Version | Text Only | Print | Product List | Glossary On
Versions: 1 2 3 4 5 6 7 8 9 10 11 12 13 14 15 16 17 18 19 20 21 22 23 24 25 26 27 28 29 30 31 32 33 34 35 36 37 38 39 40 41 42 43 44 45 46 47 48 49 50
000
ASUS44 KEWX 111011
RWRTX
SOUTH TEXAS REGIONAL WEATHER ROUNDUP
NATIONAL WEATHER SERVICE AUSTIN/SAN ANTONIO TX
400 AM CST SUN DEC 11 2016

NOTE: "FAIR" INDICATED FEW OR NO CLOUDS BELOW 12,000 FEET WITH NO
SIGNIFICANT WEATHER AND/OR OBSTRUCTIONS TO VISIBILITY.

* - THESE STATIONS ARE NOT NWS OR FAA STATIONS...AND ARE NOT SUBJECT
    TO NWS AND FAA QUALITY CONTROL.

TXZ171-172-183>190-111100-
TEXAS HILL COUNTRY AND EDWARDS PLATEAU

CITY           SKY/WX    TMP DP  RH WIND       PRES   REMARKS
JUNCTION       CLOUDY    53  51  93 S8        30.04F
*LLANO         CLOUDY   N/A N/A N/A CALM      30.08F FOG
BURNET         FOG       50  50 100 S7        30.08F VSB 1/4 WCI  47
*HORSESHOE BAY CLOUDY    53  52  97 CALM      30.06F FOG
*KERRVILLE     RAIN      49  48  97 CALM      30.08F
*FREDERICKSBRG CLOUDY    49  48  98 SW6       30.07F FOG     WCI  46
*ROCKSPRINGS   FOG       48  48 100 S9        30.08F VSB 1   WCI  44
*BOERNE STAGE  CLOUDY    50  50 100 SW6       30.09S VSB 1   WCI  48
*CASTROVILLE   CLOUDY    48  48 100 NW7       30.11F FOG     WCI  45
HONDO          CLOUDY    51  48  89 N5        30.10F
*UVALDE        CLOUDY    47  47  99 CALM      30.10F FOG
DEL RIO        CLOUDY    47  46  97 E6        30.08F FOG     WCI  44
LAUGHLIN AFB   MOCLDY    46  41  81 E5        30.08F HAZE    WCI  44
CARRIZO SPRGS  NOT AVBL
*EAGLE PASS    NOT AVBL
$$

TXZ173-191>194-202-209-217>225-228-111100-
CENTRAL AND SOUTH CENTRAL TEXAS

CITY           SKY/WX    TMP DP  RH WIND       PRES   REMARKS
GEORGETOWN     CLOUDY    52  48  87 S6        30.06F
AUSTIN/BERGSTM DRZL/FOG  52  52 100 CALM      30.08F VSB 1/2
AUSTIN/MABRY   CLOUDY    50  50 100 CALM      30.09F FOG
*AUSTIN/EXEC   FOG       50  50 100 S5        30.08F VSB 1/2 WCI  48
*LAGO VISTA    DRZL/FOG  52  52  98 S6        30.07F VSB 1/4
SAN MARCOS     CLOUDY    52  50  93 SW5       30.08F VSB 3/4
NEW BRAUNFELS  FOG       52  51  97 CALM      30.06F VSB 1/4
RANDOLPH AFB   FOG       51  51 100 CALM      30.07F VSB 3/4
PT SAN ANTONIO FOG       49  49  97 W6        30.06F VSB 1   WCI  47
SAN ANTONIO    DRZL/FOG  50  49  96 NW6       30.09F VSB 1/2 WCI  48
STINSON FIELD  FOG       51  49  92 W7        30.08F VSB 3/4
*PLEASANTON    CLOUDY    48  48  99 CALM      30.10F FOG
*LA GRANGE     CLOUDY    57  54  88 SE3       30.06F
*GIDDINGS      CLOUDY    55  52  88 S6        30.10F
*GONZALES      NOT AVBL
$$

TXZ163>164-176>182-195>201-210>213-226-227-235-111100-
SOUTHEAST TEXAS

CITY           SKY/WX    TMP DP  RH WIND       PRES   REMARKS
COLLEGE STN    CLOUDY    55  49  80 SE9       30.08F
*BRYAN         NOT AVBL
*CALDWELL      NOT AVBL
*CROCKETT      CLOUDY    50  41  71 SE6       30.12F WCI  48
*BRENHAM       CLOUDY    56  50  80 CALM      30.09F
HUNTSVILLE     CLOUDY    57  49  74 SE8       30.09F
CONROE         CLOUDY    54  48  80 SE6       30.12F
HOUSTON BUSH   CLOUDY    61  56  83 SE6       30.11F
HOUSTON HOBBY  CLOUDY    64  59  83 SE8       30.11F
*HOUSTON SW AP CLOUDY    63  59  86 SE6       30.11F
PEARLAND       CLOUDY    66  59  78 SE9       30.13F
HOUSTON HOOKS  MOCLDY    55  50  83 E3        30.11F
ELLINGTON FLD  CLOUDY    64  61  88 SE9       30.13
SUGAR LAND     CLOUDY    62  60  93 SE8       30.10F
*HOUSTON EXEC    N/A     59  57  94 SE7       30.11F
*CLEVELAND MUN CLOUDY    52  46  81 CALM      30.13F
*WHARTON       MOCLDY    61  59  93 SE8       30.09F
*COLUMBUS      NOT AVBL
*EAGLE LAKE    NOT AVBL
$$

TXZ214>216-236>238-111100-
THE UPPER TEXAS COAST

CITY           SKY/WX    TMP DP  RH WIND       PRES   REMARKS
*ORANGE        CLOUDY    50  40  67 E8        30.19F WCI  47
PORT ARTHUR    CLOUDY    53  46  77 E10       30.16F
GALVESTON      CLOUDY    67  61  81 SE13      30.13F
ANGLETON       CLOUDY    69  62  78 SE15G22   30.11F
*BAY CITY      CLOUDY    69  63  83 SE8       30.11F
PALACIOS       CLOUDY    65  61  87 SE12      30.08F
$$

TXZ229>234-239>247-111100-
TEXAS COASTAL BEND AND RIO GRANDE PLAINS

CITY           SKY/WX    TMP DP  RH WIND       PRES   REMARKS
VICTORIA       CLOUDY    59  56  89 CALM      30.09F
*BEEVILLE      FOG       50  50 100 CALM      30.08F VSB 1/2
ROCKPORT       PTCLDY    59  57  93 SW3       30.09S FOG
*PORT ARANSAS  CLEAR     56  56 100 CALM      30.09S FOG
*PORT LAVACA   CLOUDY    63  63 100 CALM      30.09F
*INGLESIDE       N/A     57  56  95 NW8       30.09S FOG
CORPUS CHRISTI FOG       54  54 100 W5        30.09F VSB 1/2
CORPUS NAS     FOG       52  32  46 SW6       30.09F VSB 3/4
*ROBSTOWN      CLOUDY    55  55 100 W5        30.10S FOG
ALICE          CLOUDY    52  52 100 NW6       30.09F FOG
KINGSVILLE NAS CLOUDY    53  53 100 W3        30.10S FOG
COTULLA        CLOUDY    50  47  89 CALM      30.09F FOG
*FAITH RANCH   CLOUDY    48  48 100 E3        30.09F FOG
LAREDO         CLOUDY    48  48 100 NE3       30.10F
$$

TXZ248>255-111100-
DEEP SOUTH TEXAS

CITY           SKY/WX    TMP DP  RH WIND       PRES   REMARKS
BROWNSVILLE    CLOUDY    53  50  89 S3        30.11F
PORT ISABEL    CLOUDY    54  51  90 SW6       30.10F
*SOUTH PADRE   NOT AVBL
HARLINGEN      CLOUDY    53  51  93 CALM      30.09F
*HEBBRONVILLE  FOG       49  49  98 CALM      30.10S VSB 3/4
MCALLEN        CLOUDY    53  50  89 CALM      30.10F FOG
*WESLACO       CLOUDY    53  49  88 CALM      30.09F
FALFURRIAS     CLOUDY    52  51  97 CALM      30.10F
EDINBURG       CLOUDY    54  50  88 CALM      30.11F FOG
*ZAPATA        CLOUDY    50  50 100 CALM      30.09F FOG
$$

TXZ213>215-236>238-242>244-246-247-251-254-255-111100-
CMAN STATIONS

STATION/POSITION TIME  TEMP    WIND        PRES    WAVE
                       AIR SEA DIR/SP/G            HT/PER
                 (UTC) (F)     (DEG/KT/KT) (MB)    (FT/S)
SABINE PASS      0948   59 56  140/  9/ 10 1022.6
SEA RIM ST PARK  1000   61     130/  9/ 10 1021.6
NORTH JETTY/GLS  0948   64 58  140/ 11/ 14   N/A
EAGLE POINT      0942   58 53  160/  6/  7 1020.2
MORGANS POINT    0948   60 58  110/  7/ 10 1020.2
PORT O`CONNOR    0948   65     160/ 11/ 13 1018.3
PORT ARANSAS     1000   57 60  240/  4/  5 1018.5
MALAQUITE BEACH  0948   54 60  230/  5/  6 1019.4
BAFFIN BAY       0948   53 54  240/  6/  7 1019.2
PORT ISABEL      0948   54 60  210/  4/  6 1019.6
$$

GMZ080-GMZ150>470-111100-
OFFSHORE BUOY REPORTS

STATION/POSITION TIME  TEMP    WIND        PRES    WAVE
                       AIR SEA DIR/SP/G            HT/PER
                 (UTC) (F)     (DEG/KT/KT) (MB)    (FT/S)
20 E GALVESTON   0950   67 65  150/ 16/ 17 1020.5    5/ 6
90 E PT ARANSAS  0950   73 76  140/ 19/ 23 1019.2    7/ 7
35 NE PT MANSFLD 0950   70 75  210/ 10/ 12 1018.2    8/ 7
200 E PT ISABEL  0950   73 76  120/ 16/ 19 1020.9    7/ 8
$$




USA.gov is the U.S. government's official web portal to all federal, state and local government web resources and services.